owner,sensor,date,latitude,longitude,vertical_datum,sea_water_practical_salinity,qcFlag 
NERRS,ioos:station:NOAA.NERRS:gndbhwq:1,2016-05-01T00:45:00Z,30.4178,-88.4054,1.58,8.7,1111122 
NERRS,ioos:station:NOAA.NERRS:gndbhwq:1,2016-05-01T01:45:00Z,30.4178,-88.4054,1.78,7.5,1111122 
NERRS,ioos:station:NOAA.NERRS:gndbhwq:1,2016-05-01T02:45:00Z,30.4178,-88.4054,1.72,7.7,1111122 
NERRS,ioos:station:NOAA.NERRS:gndbhwq:1,2016-05-01T03:45:00Z,30.4178,-88.4054,1.43,4.7,1111122 
NERRS,ioos:station:NOAA.NERRS:gndbhwq:1,2016-05-01T04:45:00Z,30.4178,-88.4054,1.42,5.0,1111122 
NERRS,ioos:station:NOAA.NERRS:gndbhwq:1,2016-05-01T05:45:00Z,30.4178,-88.4054,1.56,5.9,1111122 
NERRS,ioos:station:NOAA.NERRS:gndbhwq:1,2016-05-01T06:45:00Z,30.4178,-88.4054,1.43,5.5,1111122 
NERRS,ioos:station:NOAA.NERRS:gndbhwq:1,2016-05-01T07:45:00Z,30.4178,-88.4054,1.42,6.0,1111122 
NERRS,ioos:station:NOAA.NERRS:gndbhwq:1,2016-05-01T08:45:00Z,30.4178,-88.4054,1.3,5.8,1111122 
NERRS,ioos:station:NOAA.NERRS:gndbhwq:1,2016-05-01T09:45:00Z,30.4178,-88.4054,1.41,6.8,1111122 
NERRS,ioos:station:NOAA.NERRS:gndbhwq:1,2016-05-01T10:45:00Z,30.4178,-88.4054,1.48,7.4,1111122 
NERRS,ioos:station:NOAA.NERRS:gndbhwq:1,2016-05-01T11:45:00Z,30.4178,-88.4054,1.51,7.3,1111122 
NERRS,ioos:station:NOAA.NERRS:gndbhwq:1,2016-05-01T12:45:00Z,30.4178,-88.4054,1.5,7.5,1111122 
NERRS,ioos:station:NOAA.NERRS:gndbhwq:1,2016-05-01T13:45:00Z,30.4178,-88.4054,1.6,7.4,1111122 
NERRS,ioos:station:NOAA.NERRS:gndbhwq:1,2016-05-01T14:45:00Z,30.4178,-88.4054,1.67,7.6,1111122 
NERRS,ioos:station:NOAA.NERRS:gndbhwq:1,2016-05-01T15:45:00Z,30.4178,-88.4054,1.64,7.2,1111122 
NERRS,ioos:station:NOAA.NERRS:gndbhwq:1,2016-05-01T16:45:00Z,30.4178,-88.4054,1.57,7.1,1111122 
NERRS,ioos:station:NOAA.NERRS:gndbhwq:1,2016-05-01T17:45:00Z,30.4178,-88.4054,1.65,7.6,1111122 
NERRS,ioos:station:NOAA.NERRS:gndbhwq:1,2016-05-01T18:45:00Z,30.4178,-88.4054,1.67,7.6,1111122 
NERRS,ioos:station:NOAA.NERRS:gndbhwq:1,2016-05-01T19:45:00Z,30.4178,-88.4054,1.7,7.7,1111122 
NERRS,ioos:station:NOAA.NERRS:gndbhwq:1,2016-05-01T20:45:00Z,30.4178,-88.4054,1.65,7.6,1111122 
NERRS,ioos:station:NOAA.NERRS:gndbhwq:1,2016-05-01T21:45:00Z,30.4178,-88.4054,1.64,7.7,1111122 
NERRS,ioos:station:NOAA.NERRS:gndbhwq:1,2016-05-01T22:45:00Z,30.4178,-88.4054,1.64,7.6,1111122 
NERRS,ioos:station:NOAA.NERRS:gndbhwq:1,2016-05-01T23:45:00Z,30.4178,-88.4054,1.63,7.6,1111122 
NERRS,ioos:station:NOAA.NERRS:gndbhwq:1,2016-05-02T00:45:00Z,30.4178,-88.4054,1.69,7.7,1111122 
NERRS,ioos:station:NOAA.NERRS:gndbhwq:1,2016-05-02T01:45:00Z,30.4178,-88.4054,1.76,8.4,1111122 
NERRS,ioos:station:NOAA.NERRS:gndbhwq:1,2016-05-02T02:45:00Z,30.4178,-88.4054,1.86,8.2,1111122 
NERRS,ioos:station:NOAA.NERRS:gndbhwq:1,2016-05-02T03:45:00Z,30.4178,-88.4054,1.74,7.2,1111122 
NERRS,ioos:station:NOAA.NERRS:gndbhwq:1,2016-05-02T04:45:00Z,30.4178,-88.4054,1.69,6.5,1111122 
NERRS,ioos:station:NOAA.NERRS:gndbhwq:1,2016-05-02T05:45:00Z,30.4178,-88.4054,1.57,5.8,1111122 
NERRS,ioos:station:NOAA.NERRS:gndbhwq:1,2016-05-02T06:45:00Z,30.4178,-88.4054,1.57,6.4,1111122 
NERRS,ioos:station:NOAA.NERRS:gndbhwq:1,2016-05-02T07:45:00Z,30.4178,-88.4054,1.53,6.4,1111122 
NERRS,ioos:station:NOAA.NERRS:gndbhwq:1,2016-05-02T08:45:00Z,30.4178,-88.4054,1.54,6.7,1111122 
NERRS,ioos:station:NOAA.NERRS:gndbhwq:1,2016-05-02T09:45:00Z,30.4178,-88.4054,1.42,6.7,1111122 
NERRS,ioos:station:NOAA.NERRS:gndbhwq:1,2016-05-02T10:45:00Z,30.4178,-88.4054,1.48,7.2,1111122 
NERRS,ioos:station:NOAA.NERRS:gndbhwq:1,2016-05-02T11:45:00Z,30.4178,-88.4054,1.54,7.6,1111122 
NERRS,ioos:station:NOAA.NERRS:gndbhwq:1,2016-05-02T12:45:00Z,30.4178,-88.4054,1.56,7.9,1111122 
NERRS,ioos:station:NOAA.NERRS:gndbhwq:1,2016-05-02T13:45:00Z,30.4178,-88.4054,1.61,7.8,1111122 
NERRS,ioos:station:NOAA.NERRS:gndbhwq:1,2016-05-02T14:45:00Z,30.4178,-88.4054,1.65,7.9,1111122 
NERRS,ioos:station:NOAA.NERRS:gndbhwq:1,2016-05-02T15:45:00Z,30.4178,-88.4054,1.65,8.0,1111122 
NERRS,ioos:station:NOAA.NERRS:gndbhwq:1,2016-05-02T16:45:00Z,30.4178,-88.4054,1.59,7.6,1111122 
NERRS,ioos:station:NOAA.NERRS:gndbhwq:1,2016-05-02T17:45:00Z,30.4178,-88.4054,1.56,7.7,1111122 
NERRS,ioos:station:NOAA.NERRS:gndbhwq:1,2016-05-02T18:45:00Z,30.4178,-88.4054,1.54,7.4,1111122 
NERRS,ioos:station:NOAA.NERRS:gndbhwq:1,2016-05-02T19:45:00Z,30.4178,-88.4054,1.59,7.5,1111122 
NERRS,ioos:station:NOAA.NERRS:gndbhwq:1,2016-05-02T20:45:00Z,30.4178,-88.4054,1.58,7.7,1111122 
NERRS,ioos:station:NOAA.NERRS:gndbhwq:1,2016-05-02T21:45:00Z,30.4178,-88.4054,1.6,8.0,1111122 
NERRS,ioos:station:NOAA.NERRS:gndbhwq:1,2016-05-02T22:45:00Z,30.4178,-88.4054,1.57,7.6,1111122 
NERRS,ioos:station:NOAA.NERRS:gndbhwq:1,2016-05-02T23:45:00Z,30.4178,-88.4054,1.56,7.5,1111122 
NERRS,ioos:station:NOAA.NERRS:gndbhwq:1,2016-05-03T00:45:00Z,30.4178,-88.4054,1.54,7.8,1111122 
NERRS,ioos:station:NOAA.NERRS:gndbhwq:1,2016-05-03T01:45:00Z,30.4178,-88.4054,1.56,7.8,1111122 
NERRS,ioos:station:NOAA.NERRS:gndbhwq:1,2016-05-03T02:45:00Z,30.4178,-88.4054,1.64,8.0,1111122 
NERRS,ioos:station:NOAA.NERRS:gndbhwq:1,2016-05-03T03:45:00Z,30.4178,-88.4054,1.52,7.8,1111122 
NERRS,ioos:station:NOAA.NERRS:gndbhwq:1,2016-05-03T04:45:00Z,30.4178,-88.4054,1.46,7.9,1111122 
NERRS,ioos:station:NOAA.NERRS:gndbhwq:1,2016-05-03T05:45:00Z,30.4178,-88.4054,1.4,7.6,1111122 
NERRS,ioos:station:NOAA.NERRS:gndbhwq:1,2016-05-03T06:45:00Z,30.4178,-88.4054,1.4,8.0,1111122 
NERRS,ioos:station:NOAA.NERRS:gndbhwq:1,2016-05-03T07:45:00Z,30.4178,-88.4054,1.46,7.9,1111122 
NERRS,ioos:station:NOAA.NERRS:gndbhwq:1,2016-05-03T08:45:00Z,30.4178,-88.4054,1.43,8.0,1111122 
NERRS,ioos:station:NOAA.NERRS:gndbhwq:1,2016-05-03T09:45:00Z,30.4178,-88.4054,1.45,7.9,1111122 
NERRS,ioos:station:NOAA.NERRS:gndbhwq:1,2016-05-03T10:45:00Z,30.4178,-88.4054,1.46,7.8,1111122 
NERRS,ioos:station:NOAA.NERRS:gndbhwq:1,2016-05-03T11:45:00Z,30.4178,-88.4054,1.48,8.0,1111122 
NERRS,ioos:station:NOAA.NERRS:gndbhwq:1,2016-05-03T12:45:00Z,30.4178,-88.4054,1.48,8.1,1111122 
NERRS,ioos:station:NOAA.NERRS:gndbhwq:1,2016-05-03T13:45:00Z,30.4178,-88.4054,1.52,8.1,1111122 
NERRS,ioos:station:NOAA.NERRS:gndbhwq:1,2016-05-03T14:45:00Z,30.4178,-88.4054,1.55,8.1,1111122 
NERRS,ioos:station:NOAA.NERRS:gndbhwq:1,2016-05-03T15:45:00Z,30.4178,-88.4054,1.52,8.0,1111122 
NERRS,ioos:station:NOAA.NERRS:gndbhwq:1,2016-05-03T16:45:00Z,30.4178,-88.4054,1.47,7.9,1111122 
NERRS,ioos:station:NOAA.NERRS:gndbhwq:1,2016-05-03T17:45:00Z,30.4178,-88.4054,1.43,8.1,1111122 
NERRS,ioos:station:NOAA.NERRS:gndbhwq:1,2016-05-03T18:45:00Z,30.4178,-88.4054,1.4,8.1,1111122 
NERRS,ioos:station:NOAA.NERRS:gndbhwq:1,2016-05-03T19:45:00Z,30.4178,-88.4054,1.41,8.1,1111122 
NERRS,ioos:station:NOAA.NERRS:gndbhwq:1,2016-05-03T20:45:00Z,30.4178,-88.4054,1.44,8.1,1111122 
NERRS,ioos:station:NOAA.NERRS:gndbhwq:1,2016-05-03T21:45:00Z,30.4178,-88.4054,1.43,8.2,1111122 
NERRS,ioos:station:NOAA.NERRS:gndbhwq:1,2016-05-03T22:45:00Z,30.4178,-88.4054,1.41,8.2,1111122 
NERRS,ioos:station:NOAA.NERRS:gndbhwq:1,2016-05-03T23:45:00Z,30.4178,-88.4054,1.41,8.2,1111122 
NERRS,ioos:station:NOAA.NERRS:gndbhwq:1,2016-05-04T00:45:00Z,30.4178,-88.4054,1.44,8.2,1111122 
NERRS,ioos:station:NOAA.NERRS:gndbhwq:1,2016-05-04T01:45:00Z,30.4178,-88.4054,1.43,8.3,1111122 
NERRS,ioos:station:NOAA.NERRS:gndbhwq:1,2016-05-04T02:45:00Z,30.4178,-88.4054,1.48,8.4,1111122 
NERRS,ioos:station:NOAA.NERRS:gndbhwq:1,2016-05-04T03:45:00Z,30.4178,-88.4054,1.41,8.4,1111122 
NERRS,ioos:station:NOAA.NERRS:gndbhwq:1,2016-05-04T04:45:00Z,30.4178,-88.4054,1.45,8.7,1111122 
NERRS,ioos:station:NOAA.NERRS:gndbhwq:1,2016-05-04T05:45:00Z,30.4178,-88.4054,1.36,8.2,1111122 
NERRS,ioos:station:NOAA.NERRS:gndbhwq:1,2016-05-04T06:45:00Z,30.4178,-88.4054,1.31,8.9,1111122 
NERRS,ioos:station:NOAA.NERRS:gndbhwq:1,2016-05-04T07:45:00Z,30.4178,-88.4054,1.17,8.2,1111122 
NERRS,ioos:station:NOAA.NERRS:gndbhwq:1,2016-05-04T08:45:00Z,30.4178,-88.4054,1.29,9.1,1111122 
NERRS,ioos:station:NOAA.NERRS:gndbhwq:1,2016-05-04T09:45:00Z,30.4178,-88.4054,1.24,8.9,1111122 
NERRS,ioos:station:NOAA.NERRS:gndbhwq:1,2016-05-04T10:45:00Z,30.4178,-88.4054,1.3,9.3,1111122 
NERRS,ioos:station:NOAA.NERRS:gndbhwq:1,2016-05-04T11:45:00Z,30.4178,-88.4054,1.33,9.3,1111122 
NERRS,ioos:station:NOAA.NERRS:gndbhwq:1,2016-05-04T12:45:00Z,30.4178,-88.4054,1.42,9.4,1111122 
NERRS,ioos:station:NOAA.NERRS:gndbhwq:1,2016-05-04T13:45:00Z,30.4178,-88.4054,1.47,9.5,1111122 
NERRS,ioos:station:NOAA.NERRS:gndbhwq:1,2016-05-04T14:45:00Z,30.4178,-88.4054,1.46,9.6,1111122 
NERRS,ioos:station:NOAA.NERRS:gndbhwq:1,2016-05-04T15:45:00Z,30.4178,-88.4054,1.45,9.5,1111122 
NERRS,ioos:station:NOAA.NERRS:gndbhwq:1,2016-05-04T16:45:00Z,30.4178,-88.4054,1.44,9.6,1111122 
NERRS,ioos:station:NOAA.NERRS:gndbhwq:1,2016-05-04T17:45:00Z,30.4178,-88.4054,1.32,9.6,1111122 
NERRS,ioos:station:NOAA.NERRS:gndbhwq:1,2016-05-04T18:45:00Z,30.4178,-88.4054,1.27,9.7,1111122 
NERRS,ioos:station:NOAA.NERRS:gndbhwq:1,2016-05-04T19:45:00Z,30.4178,-88.4054,1.24,9.7,1111122 
NERRS,ioos:station:NOAA.NERRS:gndbhwq:1,2016-05-04T20:45:00Z,30.4178,-88.4054,1.23,9.7,1111122 
NERRS,ioos:station:NOAA.NERRS:gndbhwq:1,2016-05-04T21:45:00Z,30.4178,-88.4054,1.16,9.7,1111122 
NERRS,ioos:station:NOAA.NERRS:gndbhwq:1,2016-05-04T22:45:00Z,30.4178,-88.4054,1.25,9.8,1111122 
NERRS,ioos:station:NOAA.NERRS:gndbhwq:1,2016-05-04T23:45:00Z,30.4178,-88.4054,1.24,9.7,1111122 
NERRS,ioos:station:NOAA.NERRS:gndbhwq:1,2016-05-05T00:45:00Z,30.4178,-88.4054,1.33,9.7,1111122 
NERRS,ioos:station:NOAA.NERRS:gndbhwq:1,2016-05-05T01:45:00Z,30.4178,-88.4054,1.26,9.6,1111122 
NERRS,ioos:station:NOAA.NERRS:gndbhwq:1,2016-05-05T02:45:00Z,30.4178,-88.4054,1.31,9.6,1111122 
NERRS,ioos:station:NOAA.NERRS:gndbhwq:1,2016-05-05T03:45:00Z,30.4178,-88.4054,1.33,9.6,1111122 
NERRS,ioos:station:NOAA.NERRS:gndbhwq:1,2016-05-05T04:45:00Z,30.4178,-88.4054,1.38,9.6,1111122 
NERRS,ioos:station:NOAA.NERRS:gndbhwq:1,2016-05-05T05:45:00Z,30.4178,-88.4054,1.4,9.5,1111122 
NERRS,ioos:station:NOAA.NERRS:gndbhwq:1,2016-05-05T06:45:00Z,30.4178,-88.4054,1.36,9.4,1111122 
NERRS,ioos:station:NOAA.NERRS:gndbhwq:1,2016-05-05T07:45:00Z,30.4178,-88.4054,1.31,9.4,1111122 
NERRS,ioos:station:NOAA.NERRS:gndbhwq:1,2016-05-05T08:45:00Z,30.4178,-88.4054,1.31,9.4,1111122 
NERRS,ioos:station:NOAA.NERRS:gndbhwq:1,2016-05-05T09:45:00Z,30.4178,-88.4054,1.34,9.3,1111122 
NERRS,ioos:station:NOAA.NERRS:gndbhwq:1,2016-05-05T10:45:00Z,30.4178,-88.4054,1.37,9.4,1111122 
NERRS,ioos:station:NOAA.NERRS:gndbhwq:1,2016-05-05T11:45:00Z,30.4178,-88.4054,1.4,9.5,1111122 
NERRS,ioos:station:NOAA.NERRS:gndbhwq:1,2016-05-05T12:45:00Z,30.4178,-88.4054,1.36,9.4,1111122 
NERRS,ioos:station:NOAA.NERRS:gndbhwq:1,2016-05-05T13:45:00Z,30.4178,-88.4054,1.38,9.5,1111122 
NERRS,ioos:station:NOAA.NERRS:gndbhwq:1,2016-05-05T14:45:00Z,30.4178,-88.4054,1.42,9.6,1111122 
NERRS,ioos:station:NOAA.NERRS:gndbhwq:1,2016-05-05T15:45:00Z,30.4178,-88.4054,1.45,9.6,1111122 
NERRS,ioos:station:NOAA.NERRS:gndbhwq:1,2016-05-05T16:45:00Z,30.4178,-88.4054,1.42,9.6,1111122 
NERRS,ioos:station:NOAA.NERRS:gndbhwq:1,2016-05-05T17:45:00Z,30.4178,-88.4054,1.3,9.5,1111122 
NERRS,ioos:station:NOAA.NERRS:gndbhwq:1,2016-05-05T18:45:00Z,30.4178,-88.4054,1.21,9.6,1111122 
NERRS,ioos:station:NOAA.NERRS:gndbhwq:1,2016-05-05T19:45:00Z,30.4178,-88.4054,1.11,9.4,1111122 
NERRS,ioos:station:NOAA.NERRS:gndbhwq:1,2016-05-05T20:45:00Z,30.4178,-88.4054,1.1,9.6,1111122 
NERRS,ioos:station:NOAA.NERRS:gndbhwq:1,2016-05-05T21:45:00Z,30.4178,-88.4054,0.99,9.6,1111122 
NERRS,ioos:station:NOAA.NERRS:gndbhwq:1,2016-05-05T22:45:00Z,30.4178,-88.4054,1.05,13.3,1111122 
NERRS,ioos:station:NOAA.NERRS:gndbhwq:1,2016-05-05T23:45:00Z,30.4178,-88.4054,1.07,14.5,1111122 
NERRS,ioos:station:NOAA.NERRS:gndbhwq:1,2016-05-06T00:45:00Z,30.4178,-88.4054,1.07,15.0,1111122 
NERRS,ioos:station:NOAA.NERRS:gndbhwq:1,2016-05-06T01:45:00Z,30.4178,-88.4054,1.1,15.2,1111122 
NERRS,ioos:station:NOAA.NERRS:gndbhwq:1,2016-05-06T02:45:00Z,30.4178,-88.4054,1.06,14.8,1111122 
NERRS,ioos:station:NOAA.NERRS:gndbhwq:1,2016-05-06T03:45:00Z,30.4178,-88.4054,1.14,16.5,1111122 
NERRS,ioos:station:NOAA.NERRS:gndbhwq:1,2016-05-06T04:45:00Z,30.4178,-88.4054,1.19,17.0,1111122 
NERRS,ioos:station:NOAA.NERRS:gndbhwq:1,2016-05-06T05:45:00Z,30.4178,-88.4054,1.2,17.2,1111122 
NERRS,ioos:station:NOAA.NERRS:gndbhwq:1,2016-05-06T06:45:00Z,30.4178,-88.4054,1.28,17.6,1111122 
NERRS,ioos:station:NOAA.NERRS:gndbhwq:1,2016-05-06T07:45:00Z,30.4178,-88.4054,1.23,17.7,1111122 
NERRS,ioos:station:NOAA.NERRS:gndbhwq:1,2016-05-06T08:45:00Z,30.4178,-88.4054,1.3,17.8,1111122 
NERRS,ioos:station:NOAA.NERRS:gndbhwq:1,2016-05-06T09:45:00Z,30.4178,-88.4054,1.33,18.0,1111122 
NERRS,ioos:station:NOAA.NERRS:gndbhwq:1,2016-05-06T10:45:00Z,30.4178,-88.4054,1.43,18.3,1111122 
NERRS,ioos:station:NOAA.NERRS:gndbhwq:1,2016-05-06T11:45:00Z,30.4178,-88.4054,1.51,18.4,1111122 
NERRS,ioos:station:NOAA.NERRS:gndbhwq:1,2016-05-06T12:45:00Z,30.4178,-88.4054,1.56,18.5,1111122 
NERRS,ioos:station:NOAA.NERRS:gndbhwq:1,2016-05-06T13:45:00Z,30.4178,-88.4054,1.59,18.4,1111122 
NERRS,ioos:station:NOAA.NERRS:gndbhwq:1,2016-05-06T14:45:00Z,30.4178,-88.4054,1.58,18.5,1111122 
NERRS,ioos:station:NOAA.NERRS:gndbhwq:1,2016-05-06T15:45:00Z,30.4178,-88.4054,1.57,18.5,1111122 
NERRS,ioos:station:NOAA.NERRS:gndbhwq:1,2016-05-06T16:45:00Z,30.4178,-88.4054,1.51,18.5,1111122 
NERRS,ioos:station:NOAA.NERRS:gndbhwq:1,2016-05-06T17:45:00Z,30.4178,-88.4054,1.44,18.5,1111122 
NERRS,ioos:station:NOAA.NERRS:gndbhwq:1,2016-05-06T18:45:00Z,30.4178,-88.4054,1.36,18.5,1111122 
NERRS,ioos:station:NOAA.NERRS:gndbhwq:1,2016-05-06T19:45:00Z,30.4178,-88.4054,1.26,18.5,1111122 
NERRS,ioos:station:NOAA.NERRS:gndbhwq:1,2016-05-06T20:45:00Z,30.4178,-88.4054,1.16,18.5,1111122 
NERRS,ioos:station:NOAA.NERRS:gndbhwq:1,2016-05-06T21:45:00Z,30.4178,-88.4054,1.03,18.3,1111122 
NERRS,ioos:station:NOAA.NERRS:gndbhwq:1,2016-05-06T22:45:00Z,30.4178,-88.4054,1.0,18.4,1111122 
NERRS,ioos:station:NOAA.NERRS:gndbhwq:1,2016-05-06T23:45:00Z,30.4178,-88.4054,1.0,18.4,1111122 
NERRS,ioos:station:NOAA.NERRS:gndbhwq:1,2016-05-07T00:45:00Z,30.4178,-88.4054,1.02,18.3,1111122 
NERRS,ioos:station:NOAA.NERRS:gndbhwq:1,2016-05-07T01:45:00Z,30.4178,-88.4054,1.04,18.3,1111122 
NERRS,ioos:station:NOAA.NERRS:gndbhwq:1,2016-05-07T02:45:00Z,30.4178,-88.4054,1.01,18.3,1111122 
NERRS,ioos:station:NOAA.NERRS:gndbhwq:1,2016-05-07T03:45:00Z,30.4178,-88.4054,1.08,18.3,1111122 
NERRS,ioos:station:NOAA.NERRS:gndbhwq:1,2016-05-07T04:45:00Z,30.4178,-88.4054,1.17,18.4,1111122 
NERRS,ioos:station:NOAA.NERRS:gndbhwq:1,2016-05-07T05:45:00Z,30.4178,-88.4054,1.21,18.2,1111122 
NERRS,ioos:station:NOAA.NERRS:gndbhwq:1,2016-05-07T06:45:00Z,30.4178,-88.4054,1.27,18.1,1111122 
NERRS,ioos:station:NOAA.NERRS:gndbhwq:1,2016-05-07T07:45:00Z,30.4178,-88.4054,1.3,18.1,1111122 
NERRS,ioos:station:NOAA.NERRS:gndbhwq:1,2016-05-07T08:45:00Z,30.4178,-88.4054,1.32,18.0,1111122 
NERRS,ioos:station:NOAA.NERRS:gndbhwq:1,2016-05-07T09:45:00Z,30.4178,-88.4054,1.36,17.9,1111122 
NERRS,ioos:station:NOAA.NERRS:gndbhwq:1,2016-05-07T10:45:00Z,30.4178,-88.4054,1.4,18.0,1111122 
NERRS,ioos:station:NOAA.NERRS:gndbhwq:1,2016-05-07T11:45:00Z,30.4178,-88.4054,1.48,18.0,1111122 
NERRS,ioos:station:NOAA.NERRS:gndbhwq:1,2016-05-07T12:45:00Z,30.4178,-88.4054,1.56,18.1,1111122 
NERRS,ioos:station:NOAA.NERRS:gndbhwq:1,2016-05-07T13:45:00Z,30.4178,-88.4054,1.63,18.2,1111122 
NERRS,ioos:station:NOAA.NERRS:gndbhwq:1,2016-05-07T14:45:00Z,30.4178,-88.4054,1.66,18.1,1111122 
NERRS,ioos:station:NOAA.NERRS:gndbhwq:1,2016-05-07T15:45:00Z,30.4178,-88.4054,1.62,18.1,1111122 
NERRS,ioos:station:NOAA.NERRS:gndbhwq:1,2016-05-07T16:45:00Z,30.4178,-88.4054,1.58,18.1,1111122 
NERRS,ioos:station:NOAA.NERRS:gndbhwq:1,2016-05-07T17:45:00Z,30.4178,-88.4054,1.56,18.0,1111122 
NERRS,ioos:station:NOAA.NERRS:gndbhwq:1,2016-05-07T18:45:00Z,30.4178,-88.4054,1.51,17.8,1111122 
NERRS,ioos:station:NOAA.NERRS:gndbhwq:1,2016-05-07T19:45:00Z,30.4178,-88.4054,1.4,17.6,1111122 
NERRS,ioos:station:NOAA.NERRS:gndbhwq:1,2016-05-07T20:45:00Z,30.4178,-88.4054,1.26,17.5,1111122 
NERRS,ioos:station:NOAA.NERRS:gndbhwq:1,2016-05-07T21:45:00Z,30.4178,-88.4054,1.15,17.3,1111122 
NERRS,ioos:station:NOAA.NERRS:gndbhwq:1,2016-05-07T22:45:00Z,30.4178,-88.4054,1.07,17.2,1111122 
NERRS,ioos:station:NOAA.NERRS:gndbhwq:1,2016-05-07T23:45:00Z,30.4178,-88.4054,1.06,17.1,1111122 
NERRS,ioos:station:NOAA.NERRS:gndbhwq:1,2016-05-08T00:45:00Z,30.4178,-88.4054,1.06,17.0,1111122 
NERRS,ioos:station:NOAA.NERRS:gndbhwq:1,2016-05-08T01:45:00Z,30.4178,-88.4054,1.05,17.2,1111122 
NERRS,ioos:station:NOAA.NERRS:gndbhwq:1,2016-05-08T02:45:00Z,30.4178,-88.4054,1.06,17.0,1111122 
NERRS,ioos:station:NOAA.NERRS:gndbhwq:1,2016-05-08T03:45:00Z,30.4178,-88.4054,1.1,16.9,1111122 
NERRS,ioos:station:NOAA.NERRS:gndbhwq:1,2016-05-08T04:45:00Z,30.4178,-88.4054,1.16,16.9,1111122 
NERRS,ioos:station:NOAA.NERRS:gndbhwq:1,2016-05-08T05:45:00Z,30.4178,-88.4054,1.24,17.1,1111122 
NERRS,ioos:station:NOAA.NERRS:gndbhwq:1,2016-05-08T06:45:00Z,30.4178,-88.4054,1.28,17.1,1111122 
NERRS,ioos:station:NOAA.NERRS:gndbhwq:1,2016-05-08T07:45:00Z,30.4178,-88.4054,1.34,17.1,1111122 
NERRS,ioos:station:NOAA.NERRS:gndbhwq:1,2016-05-08T08:45:00Z,30.4178,-88.4054,1.32,17.2,1111122 
NERRS,ioos:station:NOAA.NERRS:gndbhwq:1,2016-05-08T09:45:00Z,30.4178,-88.4054,1.36,17.2,1111122 
NERRS,ioos:station:NOAA.NERRS:gndbhwq:1,2016-05-08T10:45:00Z,30.4178,-88.4054,1.38,17.1,1111122 
NERRS,ioos:station:NOAA.NERRS:gndbhwq:1,2016-05-08T11:45:00Z,30.4178,-88.4054,1.46,17.2,1111122 
NERRS,ioos:station:NOAA.NERRS:gndbhwq:1,2016-05-08T12:45:00Z,30.4178,-88.4054,1.53,17.2,1111122 
NERRS,ioos:station:NOAA.NERRS:gndbhwq:1,2016-05-08T13:45:00Z,30.4178,-88.4054,1.61,17.3,1111122 
NERRS,ioos:station:NOAA.NERRS:gndbhwq:1,2016-05-08T14:45:00Z,30.4178,-88.4054,1.65,17.4,1111122 
NERRS,ioos:station:NOAA.NERRS:gndbhwq:1,2016-05-08T15:45:00Z,30.4178,-88.4054,1.63,17.3,1111122 
NERRS,ioos:station:NOAA.NERRS:gndbhwq:1,2016-05-08T16:45:00Z,30.4178,-88.4054,1.58,17.1,1111122 
NERRS,ioos:station:NOAA.NERRS:gndbhwq:1,2016-05-08T17:45:00Z,30.4178,-88.4054,1.56,17.0,1111122 
NERRS,ioos:station:NOAA.NERRS:gndbhwq:1,2016-05-08T18:45:00Z,30.4178,-88.4054,1.53,16.9,1111122 
NERRS,ioos:station:NOAA.NERRS:gndbhwq:1,2016-05-08T19:45:00Z,30.4178,-88.4054,1.44,16.7,1111122 
NERRS,ioos:station:NOAA.NERRS:gndbhwq:1,2016-05-08T20:45:00Z,30.4178,-88.4054,1.32,16.5,1111122 
NERRS,ioos:station:NOAA.NERRS:gndbhwq:1,2016-05-08T21:45:00Z,30.4178,-88.4054,1.21,16.2,1111122 
NERRS,ioos:station:NOAA.NERRS:gndbhwq:1,2016-05-08T22:45:00Z,30.4178,-88.4054,1.14,16.0,1111122 
NERRS,ioos:station:NOAA.NERRS:gndbhwq:1,2016-05-08T23:45:00Z,30.4178,-88.4054,1.07,15.9,1111122 
NERRS,ioos:station:NOAA.NERRS:gndbhwq:1,2016-05-09T00:45:00Z,30.4178,-88.4054,1.08,16.0,1111122 
NERRS,ioos:station:NOAA.NERRS:gndbhwq:1,2016-05-09T01:45:00Z,30.4178,-88.4054,1.01,16.1,1111122 
NERRS,ioos:station:NOAA.NERRS:gndbhwq:1,2016-05-09T02:45:00Z,30.4178,-88.4054,1.03,16.1,1111122 
NERRS,ioos:station:NOAA.NERRS:gndbhwq:1,2016-05-09T03:45:00Z,30.4178,-88.4054,1.08,15.9,1111122 
NERRS,ioos:station:NOAA.NERRS:gndbhwq:1,2016-05-09T04:45:00Z,30.4178,-88.4054,1.15,15.9,1111122 
NERRS,ioos:station:NOAA.NERRS:gndbhwq:1,2016-05-09T05:45:00Z,30.4178,-88.4054,1.25,16.1,1111122 
NERRS,ioos:station:NOAA.NERRS:gndbhwq:1,2016-05-09T06:45:00Z,30.4178,-88.4054,1.32,15.9,1111122 
NERRS,ioos:station:NOAA.NERRS:gndbhwq:1,2016-05-09T07:45:00Z,30.4178,-88.4054,1.42,16.1,1111122 
NERRS,ioos:station:NOAA.NERRS:gndbhwq:1,2016-05-09T08:45:00Z,30.4178,-88.4054,1.46,16.0,1111122 
NERRS,ioos:station:NOAA.NERRS:gndbhwq:1,2016-05-09T09:45:00Z,30.4178,-88.4054,1.53,16.1,1111122 
NERRS,ioos:station:NOAA.NERRS:gndbhwq:1,2016-05-09T10:45:00Z,30.4178,-88.4054,1.58,16.2,1111122 
NERRS,ioos:station:NOAA.NERRS:gndbhwq:1,2016-05-09T11:45:00Z,30.4178,-88.4054,1.59,16.1,1111122 
NERRS,ioos:station:NOAA.NERRS:gndbhwq:1,2016-05-09T12:45:00Z,30.4178,-88.4054,1.64,16.2,1111122 
NERRS,ioos:station:NOAA.NERRS:gndbhwq:1,2016-05-09T13:45:00Z,30.4178,-88.4054,1.68,16.1,1111122 
NERRS,ioos:station:NOAA.NERRS:gndbhwq:1,2016-05-09T14:45:00Z,30.4178,-88.4054,1.72,16.3,1111122 
NERRS,ioos:station:NOAA.NERRS:gndbhwq:1,2016-05-09T15:45:00Z,30.4178,-88.4054,1.77,16.4,1111122 
NERRS,ioos:station:NOAA.NERRS:gndbhwq:1,2016-05-09T16:45:00Z,30.4178,-88.4054,1.78,16.0,1111122 
NERRS,ioos:station:NOAA.NERRS:gndbhwq:1,2016-05-09T17:45:00Z,30.4178,-88.4054,1.72,15.9,1111122 
NERRS,ioos:station:NOAA.NERRS:gndbhwq:1,2016-05-09T18:45:00Z,30.4178,-88.4054,1.69,15.6,1111122 
NERRS,ioos:station:NOAA.NERRS:gndbhwq:1,2016-05-09T19:45:00Z,30.4178,-88.4054,1.65,15.6,1111122 
NERRS,ioos:station:NOAA.NERRS:gndbhwq:1,2016-05-09T20:45:00Z,30.4178,-88.4054,1.58,15.4,1111122 
NERRS,ioos:station:NOAA.NERRS:gndbhwq:1,2016-05-09T21:45:00Z,30.4178,-88.4054,1.43,14.9,1111122 
NERRS,ioos:station:NOAA.NERRS:gndbhwq:1,2016-05-09T22:45:00Z,30.4178,-88.4054,1.4,14.8,1111122 
NERRS,ioos:station:NOAA.NERRS:gndbhwq:1,2016-05-09T23:45:00Z,30.4178,-88.4054,1.22,14.5,1111122 
NERRS,ioos:station:NOAA.NERRS:gndbhwq:1,2016-05-10T00:45:00Z,30.4178,-88.4054,1.19,14.7,1111122 
NERRS,ioos:station:NOAA.NERRS:gndbhwq:1,2016-05-10T01:45:00Z,30.4178,-88.4054,1.14,15.1,1111122 
NERRS,ioos:station:NOAA.NERRS:gndbhwq:1,2016-05-10T02:45:00Z,30.4178,-88.4054,1.22,15.0,1111122 
NERRS,ioos:station:NOAA.NERRS:gndbhwq:1,2016-05-10T03:45:00Z,30.4178,-88.4054,1.08,15.0,1111122 
NERRS,ioos:station:NOAA.NERRS:gndbhwq:1,2016-05-10T04:45:00Z,30.4178,-88.4054,1.13,14.9,1111122 
NERRS,ioos:station:NOAA.NERRS:gndbhwq:1,2016-05-10T05:45:00Z,30.4178,-88.4054,1.14,15.4,1111122 
NERRS,ioos:station:NOAA.NERRS:gndbhwq:1,2016-05-10T06:45:00Z,30.4178,-88.4054,1.23,15.4,1111122 
NERRS,ioos:station:NOAA.NERRS:gndbhwq:1,2016-05-10T12:45:00Z,30.4178,-88.4054,1.6,15.7,1111122 
NERRS,ioos:station:NOAA.NERRS:gndbhwq:1,2016-05-10T14:45:00Z,30.4178,-88.4054,1.77,15.8,1111122 
NERRS,ioos:station:NOAA.NERRS:gndbhwq:1,2016-05-10T15:45:00Z,30.4178,-88.4054,1.82,15.9,1111122 
NERRS,ioos:station:NOAA.NERRS:gndbhwq:1,2016-05-10T16:45:00Z,30.4178,-88.4054,1.85,16.0,1111122 
NERRS,ioos:station:NOAA.NERRS:gndbhwq:1,2016-05-10T17:45:00Z,30.4178,-88.4054,1.88,16.2,1111122 
NERRS,ioos:station:NOAA.NERRS:gndbhwq:1,2016-05-10T18:45:00Z,30.4178,-88.4054,1.83,15.8,1111122 
NERRS,ioos:station:NOAA.NERRS:gndbhwq:1,2016-05-10T19:45:00Z,30.4178,-88.4054,1.78,15.8,1111122 
NERRS,ioos:station:NOAA.NERRS:gndbhwq:1,2016-05-10T20:45:00Z,30.4178,-88.4054,1.72,15.5,1111122 
NERRS,ioos:station:NOAA.NERRS:gndbhwq:1,2016-05-10T21:45:00Z,30.4178,-88.4054,1.64,15.4,1111122 
NERRS,ioos:station:NOAA.NERRS:gndbhwq:1,2016-05-10T22:45:00Z,30.4178,-88.4054,1.54,15.4,1111122 
NERRS,ioos:station:NOAA.NERRS:gndbhwq:1,2016-05-10T23:45:00Z,30.4178,-88.4054,1.41,15.3,1111122 
NERRS,ioos:station:NOAA.NERRS:gndbhwq:1,2016-05-11T00:45:00Z,30.4178,-88.4054,1.3,15.3,1111122 
NERRS,ioos:station:NOAA.NERRS:gndbhwq:1,2016-05-11T01:45:00Z,30.4178,-88.4054,1.22,15.3,1111122 
NERRS,ioos:station:NOAA.NERRS:gndbhwq:1,2016-05-11T02:45:00Z,30.4178,-88.4054,1.16,15.2,1111122 
NERRS,ioos:station:NOAA.NERRS:gndbhwq:1,2016-05-11T03:45:00Z,30.4178,-88.4054,1.13,15.2,1111122 
NERRS,ioos:station:NOAA.NERRS:gndbhwq:1,2016-05-11T04:45:00Z,30.4178,-88.4054,1.14,15.3,1111122 
NERRS,ioos:station:NOAA.NERRS:gndbhwq:1,2016-05-11T05:45:00Z,30.4178,-88.4054,1.18,15.6,1111122 
NERRS,ioos:station:NOAA.NERRS:gndbhwq:1,2016-05-11T06:45:00Z,30.4178,-88.4054,1.2,15.5,1111122 
NERRS,ioos:station:NOAA.NERRS:gndbhwq:1,2016-05-11T07:45:00Z,30.4178,-88.4054,1.29,15.4,1111122 
NERRS,ioos:station:NOAA.NERRS:gndbhwq:1,2016-05-11T08:45:00Z,30.4178,-88.4054,1.34,15.4,1111122 
NERRS,ioos:station:NOAA.NERRS:gndbhwq:1,2016-05-11T09:45:00Z,30.4178,-88.4054,1.36,15.4,1111122 
NERRS,ioos:station:NOAA.NERRS:gndbhwq:1,2016-05-11T10:45:00Z,30.4178,-88.4054,1.42,15.5,1111122 
NERRS,ioos:station:NOAA.NERRS:gndbhwq:1,2016-05-11T11:45:00Z,30.4178,-88.4054,1.48,15.6,1111122 
NERRS,ioos:station:NOAA.NERRS:gndbhwq:1,2016-05-11T12:45:00Z,30.4178,-88.4054,1.53,15.6,1111122 